Change the Weather History Date:

Sunday, October 27, 2013

  Actual Average Record
Temperature  
Mean Temperature 47 °F 49 °F  
Max Temperature 64 °F 58 °F 84 °F (1927)
Min Temperature 29 °F 39 °F 14 °F (1925)
Degree Days  
Heating Degree Days 18 16  
Month to date heating degree days 310 315  
Since 1 July heating degree days 334 415  
Cooling Degree Days 0 0  
Month to date cooling degree days 31 11  
Year to date cooling degree days 1353 1063  
Moisture  
Dew Point 29 °F    
Average Humidity 58    
Maximum Humidity 85    
Minimum Humidity 30    
Precipitation  
Precipitation 0.00 in 0.08 in 1.65 in (1918)
Month to date precipitation 3.09 2.31  
Year to date precipitation 28.99 32.08  
Snow  
Snow 0.00 in 0.00 in 7.40 in (1980)
Month to date snowfall 0.0 0.3  
Since 1 July snowfall 0.0 0.3  
Since 1 September snowfall 0.0 0.3  
Snow Depth 0.00 in    
Sea Level Pressure  
Sea Level Pressure 30.01 in    
Wind  
Wind Speed 7 mph (SSW)    
Max Wind Speed 18 mph    
Max Gust Speed 24 mph    
Visibility 10 miles    
Events      
T = Trace of Precipitation, MM = Missing Value Source: NWS Daily Summary

Daily Weather History Graph

Daily Weather History Graph

Search for Another Location

Airport or City:

Trip Planner

Search our weather history database for the weather conditions in past years. The results will help you decide how hot, cold, wet, or windy it might be!

Date:

Astronomy

Oct. 27, 2013 Rise Set
Actual Time 7:40 AM CDT 6:15 PM CDT
Civil Twilight 7:12 AM CDT 6:44 PM CDT
Nautical Twilight 6:39 AM CDT 7:16 PM CDT
Astronomical Twilight 6:07 AM CDT 7:48 PM CDT
Moon 12:33 AM CDT (10/27) 2:29 PM CDT (10/27)
Length of Visible Light 11h 31m
Length of Day
10h 34m
Last Quarter, 43% of the Moon is Illuminated
Oct 27
Last Quarter
Nov 3
New
Nov 9
First Quarter
Nov 17
Full
Nov 25
Last Quarter

Hourly Weather History & Observations

Time (CDT) Temp. Windchill Dew Point Humidity Pressure Visibility Wind Dir Wind Speed Gust Speed Precip Events Conditions
12:54 AM 33.1 °F 30.0 °F 26.1 °F 75% 30.13 in 10.0 mi SW 3.5 mph - N/A   Clear
1:54 AM 35.1 °F 32.2 °F 26.1 °F 70% 30.12 in 10.0 mi WSW 3.5 mph - N/A   Partly Cloudy
2:54 AM 30.9 °F 27.5 °F 25.0 °F 79% 30.11 in 10.0 mi SSW 3.5 mph - N/A   Clear
3:54 AM 30.0 °F - 24.1 °F 79% 30.09 in 10.0 mi Calm Calm - N/A   Partly Cloudy
4:54 AM 30.9 °F 27.5 °F 24.1 °F 76% 30.08 in 10.0 mi SSW 3.5 mph - N/A   Clear
5:54 AM 28.9 °F 25.2 °F 24.1 °F 82% 30.08 in 10.0 mi SSW 3.5 mph - N/A   Clear
6:54 AM 30.0 °F - 24.1 °F 79% 30.08 in 10.0 mi Calm Calm - N/A   Partly Cloudy
7:54 AM 28.9 °F 23.9 °F 24.1 °F 82% 30.07 in 10.0 mi South 4.6 mph - N/A   Partly Cloudy
8:54 AM 33.1 °F 28.7 °F 27.0 °F 78% 30.07 in 10.0 mi South 4.6 mph - N/A   Mostly Cloudy
9:54 AM 39.9 °F 33.9 °F 30.0 °F 68% 30.06 in 10.0 mi SSW 9.2 mph - N/A   Mostly Cloudy
10:54 AM 46.9 °F - 32.0 °F 56% 30.04 in 10.0 mi South 8.1 mph - N/A   Scattered Clouds
11:54 AM 54.0 °F - 30.9 °F 41% 30.01 in 10.0 mi SSW 15.0 mph - N/A   Partly Cloudy
12:54 PM 57.0 °F - 30.9 °F 37% 29.97 in 10.0 mi SSW 15.0 mph - N/A   Partly Cloudy
1:54 PM 61.0 °F - 32.0 °F 34% 29.93 in 10.0 mi South 13.8 mph - N/A   Partly Cloudy
2:54 PM 64.0 °F - 32.0 °F 30% 29.90 in 10.0 mi SSW 16.1 mph - N/A   Scattered Clouds
3:54 PM 63.0 °F - 32.0 °F 31% 29.89 in 10.0 mi SSW 13.8 mph - N/A   Clear
4:54 PM 63.0 °F - 33.1 °F 33% 29.88 in 10.0 mi SSW 15.0 mph - N/A   Clear
5:54 PM 60.1 °F - 32.0 °F 35% 29.89 in 10.0 mi SSW 9.2 mph - N/A   Clear
6:54 PM 55.0 °F - 32.0 °F 42% 29.91 in 10.0 mi South 5.8 mph - N/A   Clear
7:54 PM 51.1 °F - 33.1 °F 50% 29.94 in 10.0 mi SSW 9.2 mph - N/A   Clear
8:54 PM 48.9 °F - 32.0 °F 52% 29.95 in 10.0 mi South 6.9 mph - N/A   Clear
9:54 PM 48.0 °F - 32.0 °F 54% 29.97 in 10.0 mi South 5.8 mph - N/A   Clear
10:54 PM 46.0 °F 43.1 °F 32.0 °F 58% 29.99 in 10.0 mi South 5.8 mph - N/A   Clear
11:54 PM 46.0 °F 42.5 °F 32.0 °F 58% 30.01 in 10.0 mi North 6.9 mph - N/A   Clear